This demonstration page uses our WeatherBlox Daily Observations layout. Learn more.

Left ArrowRight Arrow

Hourly Observations for June 29, 2017

Temp ( °F °C ) Dew Point ( °F °C ) Humidity (%) Winds ( mph kmh ) Pressure ( in mb ) Visibility ( mi km ) Precip ( " mm )
12:59 am 00:59 Mostly Clear 68 20 58 14.4 70 70 SSE 6 9 30.21 1023 10 16 0.00 0.00
1:59 am 01:59 Mostly Clear 68 20 59 15 73 73 S 6 9 30.20 1023 10 16 0.00 0.00
2:59 am 02:59 Mostly Clear 68 20 60 15.6 76 76 S 5 7 30.20 1023 10 16 0.00 0.00
3:59 am 03:59 Mostly Clear 67 19.4 60 15.6 79 79 SSE 5 7 30.20 1023 10 16 0.00 0.00
4:59 am 04:59 Mostly Clear 66 18.9 61 16.1 84 84 SSE 5 7 30.20 1023 10 16 0.00 0.00
5:59 am 05:59 Partly Cloudy 66 18.9 61 16.1 84 84 S 5 7 30.21 1023 10 16 0.00 0.00
6:59 am 06:59 Partly Cloudy 69 20.6 63 17.2 81 81 S 5 7 30.22 1023 10 16 0.00 0.00
7:59 am 07:59 Sunny 73 22.8 63 17.2 71 71 SW 7 11 30.24 1024 10 16 0.00 0.00
8:59 am 08:59 Partly Cloudy 76 24.4 63 17.2 64 64 SSW 9 15 30.25 1024 10 16 0.00 0.00
9:59 am 09:59 Partly Cloudy 79 26.1 61 16.1 54 54 SSW 10 17 30.24 1024 10 16 0.00 0.00
10:59 am 10:59 Partly Cloudy 83 28.3 59 15 44 44 SSW 10 17 30.23 1024 10 16 0.00 0.00
11:59 am 11:59 Partly Cloudy 85 29.4 58 14.4 40 40 WSW 10 17 30.22 1023 10 16 0.00 0.00
12:59 pm 12:59 Partly Cloudy 85 29.4 58 14.4 40 40 SW 10 17 30.20 1023 10 16 0.00 0.00
1:59 pm 13:59 Partly Cloudy 87 30.6 58 14.4 37 37 WSW 9 15 30.17 1022 10 16 0.00 0.00
2:59 pm 14:59 Partly Cloudy 87 30.6 59 15 39 39 S 10 17 30.16 1022 10 16 0.00 0.00
3:59 pm 15:59 Partly Cloudy 87 30.6 58 14.4 37 37 SW 10 17 30.16 1021 10 16 0.00 0.00
4:59 pm 16:59 Partly Cloudy 86 30 57 13.9 37 37 SW 9 15 30.16 1021 10 16 0.00 0.00
5:59 pm 17:59 Partly Cloudy 87 30.6 56 13.3 35 35 SW 9 15 30.16 1021 10 16 0.00 0.00
6:59 pm 18:59 Partly Cloudy 84 28.9 56 13.3 38 38 SW 9 15 30.16 1021 10 16 0.00 0.00
7:59 pm 19:59 Partly Cloudy 82 27.8 60 15.6 47 47 SSW 8 13 30.14 1021 10 16 0.00 0.00
8:59 pm 20:59 Partly Cloudy 80 26.7 64 17.8 58 58 S 12 19 30.14 1021 10 16 0.00 0.00
9:59 pm 21:59 Partly Cloudy 78 25.6 64 17.8 62 62 S 10 17 30.16 1021 10 16 0.00 0.00
10:59 pm 22:59 Partly Cloudy 77 25 64 17.8 64 64 SSW 8 13 30.15 1021 10 16 0.00 0.00
11:59 pm 23:59 Partly Cloudy 77 25 66 18.9 69 69 S 10 17 30.15 1021 10 16 0.00 0.00

Powered by AerisWeather